Location: ??????
(30.5519°N, 47.7720°E)
Time: 17:00:48
(UTC+00:00)

Cosmos 1092 Rocket - Pass Details

Date: 24 January 2021
Orbit: 954 x 995 km, 83.0° (Epoch: 01 March)

Event Time Altitude Azimuth Distance (km) Brightness Sun altitude
Rises 14:57:52 0° 177° (S) 3,658 7.2 -8.9°
Reaches altitude 10° 15:00:23 10° 175° (S) 2,707 6.5 -9.4°
Maximum altitude 15:06:32 70° 93° (E) 1,025 3.9 -10.7°
Drops below altitude 10° 15:12:39 10° 11° (N) 2,696 6.1 -11.9°
Sets 15:15:09 0° 9° (N) 3,641 6.8 -12.5°
